Location: Malvern Link
(52.1333°N, 2.3000°W)
Time: 04:16:44
(UTC+00:00)

DIWATA 2B (PO-101) - Pass Details

Date: 26 June 2022
Orbit: 583 x 599 km, 98.0° (Epoch: 13 August)

Event Time Altitude Azimuth Distance (km) Brightness Sun altitude
Exits shadow 02:34:15 10° 198° (SSW) 1,939 ? -8.4°
Reaches altitude 10° 02:34:16 10° 198° (SSW) 1,934 ? -8.4°
Maximum altitude 02:38:06 34° 264° (W) 1,004 ? -8.0°
Drops below altitude 10° 02:41:58 10° 329° (NNW) 1,952 ? -7.7°
Sets 02:44:19 0° 339° (NNW) 2,861 ? -7.5°
